This is the latest recevied weather packets stored in our database for station/object N4RCT. If no packets are shown the sender has not sent any weather packets the latest 1 day(s).
| Time | Temp. | Humidity | Pressure | Rain* | Wind** | Luminosity | Snow |
|---|---|---|---|---|---|---|---|
| 1778080469 | 20° C | 98% | 1013.8 hPa | 0 mm | - | 292 W/m² | - |
| 1778080167 | 19.44° C | 97% | 1013.9 hPa | 0 mm | - | 158 W/m² | - |
| 1778079256 | 19.44° C | 96% | 1014.7 hPa | 1.27 mm | - | 93 W/m² | - |
| 1778078650 | 19.44° C | 95% | 1014.5 hPa | 0 mm | - | 88 W/m² | - |
| 1778078045 | 18.89° C | 95% | 1014.2 hPa | 0 mm | - | 83 W/m² | - |
| 1778077139 | 18.89° C | 94% | 1014.2 hPa | 0 mm | - | 84 W/m² | - |
| 1778076231 | 19.44° C | 91% | 1014.4 hPa | 0 mm | - | 31 W/m² | - |
| 1778075625 | 20° C | 88% | 1014.1 hPa | 0 mm | - | 38 W/m² | - |
| 1778074715 | 20° C | 88% | 1013.7 hPa | 0 mm | - | 49 W/m² | - |
| 1778074412 | 20° C | 88% | 1013.8 hPa | 0 mm | - | 64 W/m² | - |
| 1778074108 | 20° C | 88% | 1013.7 hPa | 0 mm | - | 56 W/m² | - |
| 1778072897 | 19.44° C | 88% | 1013.3 hPa | 0 mm | - | 58 W/m² | - |
| 1778072593 | 19.44° C | 89% | 1013.5 hPa | 0 mm | - | 69 W/m² | - |
| 1778072291 | 19.44° C | 88% | 1013.3 hPa | 0 mm | - | 35 W/m² | - |
| 1778071989 | 19.44° C | 88% | 1013.3 hPa | 0 mm | - | 57 W/m² | - |
| 1778071384 | 19.44° C | 88% | 1013 hPa | 0 mm | - | 68 W/m² | - |
| 1778068359 | 18.89° C | 87% | 1012.4 hPa | 0 mm | - | 14 W/m² | - |
| 1778067754 | 18.89° C | 86% | 1012.7 hPa | 0 mm | - | 16 W/m² | - |
| 1778066544 | 18.89° C | 85% | 1012.3 hPa | 0 mm | - | 8 W/m² | - |
| 1778065635 | 19.44° C | 84% | 1012.3 hPa | 0 mm | - | 1 W/m² | - |
| 1778065333 | 19.44° C | 84% | 1012.1 hPa | 0 mm | - | 1 W/m² | - |
| 1778065029 | 18.89° C | 84% | 1012.1 hPa | 0 mm | - | 0 W/m² | - |
| 1778062911 | 19.44° C | 82% | 1011.8 hPa | 0 mm | - | 0 W/m² | - |
| 1778062304 | 19.44° C | 82% | 1011.5 hPa | 0 mm | - | 0 W/m² | - |
| 1778062003 | 19.44° C | 82% | 1011.5 hPa | 0 mm | - | 0 W/m² | - |
* Rain latest hour (hover to see other rain measurements)
** Current wind speed in m/s (hover to see current wind gust speed)